Redmond, OR

9:08 AM PST on February 23, 2017 (GMT -0800)
Roberts Field Airport

Weather History for KRDM - March, 2014

Change the Weather History Date:

Friday, March 7, 2014

  Actual Average Record
Temperature  
Mean Temperature 44 °F 38 °F  
Max Temperature 59 °F 52 °F 71 °F (2004)
Min Temperature 28 °F 25 °F 11 °F (2012)
Degree Days  
Heating Degree Days 21 27  
Month to date heating degree days 155 191  
Since 1 July heating degree days 4948 4864  
Cooling Degree Days 0 0  
Month to date cooling degree days 0 0  
Year to date cooling degree days 0 0  
Moisture  
Dew Point 29 °F    
Average Humidity 58    
Maximum Humidity 85    
Minimum Humidity 30    
Precipitation  
Precipitation 0.00 in 0.02 in 0.41 in (1960)
Month to date precipitation 0.15 0.14  
Year to date precipitation 2.06 1.76  
Sea Level Pressure  
Sea Level Pressure 30.22 in    
Wind  
Wind Speed 4 mph (SE)    
Max Wind Speed 9 mph    
Max Gust Speed 12 mph    
Visibility 10 miles    
Events      
T = Trace of Precipitation, MM = Missing Value Source: NWS Daily Summary

Daily Weather History Graph

Daily Weather History Graph

Search for Another Location

Airport or City:

Trip Planner

Search our weather history database for the weather conditions in past years. The results will help you decide how hot, cold, wet, or windy it might be!

Date:

Astronomy

Mar. 07, 2014 Rise Set
Actual Time 6:31 AM PST 6:00 PM PST
Civil Twilight 6:02 AM PST 6:29 PM PST
Nautical Twilight 5:28 AM PST 7:03 PM PST
Astronomical Twilight 4:54 AM PST 7:37 PM PST
Moon 10:14 AM PST (3/7) 12:23 AM PST (3/7)
Length of Visible Light 12h 27m
Length of Day
11h 29m
Waxing Crescent, 43% of the Moon is Illuminated
Mar 7
Waxing Crescent
Mar 8
First Quarter
Mar 16
Full
Mar 23
Last Quarter
Mar 30
New

Hourly Weather History & Observations

Time (PST) Temp. Windchill Dew Point Humidity Pressure Visibility Wind Dir Wind Speed Gust Speed Precip Events Conditions
12:56 AM 36.0 °F 30.3 °F 30.0 °F 79% 30.16 in 10.0 mi SSW 6.9 mph - N/A   Clear
1:56 AM 32.0 °F - 28.0 °F 85% 30.19 in 10.0 mi Calm Calm - N/A   Clear
2:56 AM 30.9 °F 25.2 °F 27.0 °F 85% 30.21 in 10.0 mi SSW 5.8 mph - N/A   Clear
3:56 AM 32.0 °F 26.4 °F 27.0 °F 82% 30.23 in 10.0 mi SSE 5.8 mph - N/A   Clear
4:56 AM 32.0 °F - 27.0 °F 82% 30.23 in 10.0 mi Calm Calm - N/A   Clear
5:56 AM 32.0 °F 26.4 °F 27.0 °F 82% 30.23 in 10.0 mi SSE 5.8 mph - N/A   Clear
6:56 AM 33.1 °F 26.1 °F 28.0 °F 82% 30.26 in 10.0 mi NE 8.1 mph - N/A   Clear
7:56 AM 39.0 °F - 30.9 °F 73% 30.27 in 10.0 mi Calm Calm - N/A   Clear
8:56 AM 42.1 °F 39.2 °F 32.0 °F 67% 30.28 in 10.0 mi NE 4.6 mph - N/A   Clear
9:56 AM 46.0 °F 42.5 °F 32.0 °F 58% 30.29 in 10.0 mi SE 6.9 mph - N/A   Clear
10:56 AM 48.9 °F - 32.0 °F 52% 30.29 in 10.0 mi Variable 4.6 mph - N/A   Clear
11:56 AM 53.1 °F - 30.9 °F 43% 30.27 in 10.0 mi ENE 5.8 mph - N/A   Clear
12:56 PM 54.0 °F - 28.0 °F 37% 30.23 in 10.0 mi Calm Calm - N/A   Clear
1:56 PM 57.0 °F - 28.9 °F 34% 30.21 in 10.0 mi Variable 4.6 mph - N/A   Clear
2:56 PM 57.0 °F - 28.0 °F 33% 30.20 in 10.0 mi Variable 3.5 mph - N/A   Clear
3:56 PM 57.9 °F - 28.0 °F 32% 30.18 in 10.0 mi Calm Calm - N/A   Clear
4:56 PM 57.0 °F - 27.0 °F 32% 30.17 in 10.0 mi Calm Calm - N/A   Clear
5:56 PM 53.1 °F - 28.9 °F 40% 30.19 in 10.0 mi ENE 5.8 mph - N/A   Clear
6:56 PM 42.1 °F - 30.0 °F 62% 30.21 in 10.0 mi Calm Calm - N/A   Clear
7:56 PM 36.0 °F - 28.9 °F 76% 30.22 in 10.0 mi Calm Calm - N/A   Clear
8:56 PM 36.0 °F - 28.0 °F 73% 30.23 in 10.0 mi Calm Calm - N/A   Clear
9:56 PM 37.0 °F 31.6 °F 28.0 °F 70% 30.23 in 10.0 mi SSE 6.9 mph - N/A   Clear
10:56 PM 36.0 °F 31.1 °F 27.0 °F 70% 30.21 in 10.0 mi South 5.8 mph - N/A   Clear
11:56 PM 35.1 °F 30.1 °F 26.1 °F 70% 30.19 in 10.0 mi SSE 5.8 mph - N/A   Clear